Regional Weather Roundup
Issued by NWS Northern Indiana

Home | Current Version | Previous Version | Text Only | Print | Product List | Glossary On
Versions: 1 2 3 4 5 6 7 8 9 10 11 12 13 14 15 16 17 18 19 20 21 22 23 24 25 26 27 28 29 30 31 32 33 34 35 36 37 38 39 40 41 42 43 44 45 46 47 48 49 50
563
ASUS43 KIWX 062110
RWRIWX

KIWX WEATHER ROUNDUP
NATIONAL WEATHER SERVICE NORTHERN INDIANA
400 PM EST SAT FEB 06 2016

NOTE: "FAIR" INDICATES FEW OR NO CLOUDS BELOW 12,000 FEET WITH NO
SIGNIFICANT WEATHER AND/OR OBSTRUCTIONS TO VISIBILITY.

* THESE STATIONS ARE NOT UNDER NWS QUALITY CONTROL. THEY ALSO MAY NOT
  REPORT WEATHER SUCH AS PRECIPITATION OR FOG.

INZ001>027-062200-
NORTHERN INDIANA

CITY           SKY/WX    TMP DP  RH WIND       PRES   REMARKS
GARY*          PTSUNNY   41  25  52 SW17      30.19S
VALPARAISO     MOSUNNY   41  27  57 SW15      30.19S
MICHIGAN CITY* MOSUNNY   41  30  65 SW10      30.19S
LAPORTE*       MOSUNNY   41  29  62 SW14G21   30.19S
SOUTH BEND     PTSUNNY   38  26  62 W16       30.19S
ELKHART*         N/A     37  25  60 MISG      30.19S
GOSHEN         MOSUNNY   37  25  61 SW14      30.19S
MONTICELLO*    SUNNY     41  24  50 SW10      30.20F
LOGANSPORT*    SUNNY     41  23  48 SW10      30.21F
ROCHESTER*     SUNNY     41  23  48 SW9       30.20S
WARSAW*        SUNNY     37  25  60 SW10G16   30.19S
FORT WAYNE     MOSUNNY   39  24  55 SW14      30.21F
HUNTINGTON*    SUNNY     39  20  46 SW9       30.20S
PERU/GRISSOM   SUNNY     41  26  55 SW13      30.19F
MARION*        SUNNY     40  17  40 SW13      30.22S

$$
INZ028>050-062200-
CENTRAL INDIANA

CITY           SKY/WX    TMP DP  RH WIND       PRES   REMARKS
LAFAYETTE      SUNNY     42  26  53 SW12      30.21F
KOKOMO*          N/A     43  27  52 SW14      30.21F
MUNCIE*        SUNNY     42  23  46 W12       30.22F
INDIANAPOLIS   SUNNY     45  23  42 SW8       30.22F

$$
MIZ043>046-050>051-056>058-064>065-071>073-077>080-062200-
SOUTHWEST LOWER MICHIGAN

CITY           SKY/WX    TMP DP  RH WIND       PRES   REMARKS
BATTLE CREEK   MOSUNNY   35  20  54 SW12      30.16F WCI  27
BENTON HARBOR  CLOUDY    37  26  64 SW12      30.18S
COLDWATER*     PTSUNNY   36  22  56 SW9       30.17S
HILLSDALE*     SUNNY     36  19  50 W7        30.16S
HOLLAND        CLOUDY    34  26  72 SW13      30.17S WCI  25
GRAND RAPIDS   CLOUDY    34  24  67 SW17      30.16S WCI  23
KALAMAZOO      CLOUDY    36  20  52 SW13      30.17S
STURGIS*       SUNNY     35  23  59 SW10      30.17S WCI  28
THREE RIVERS*  FAIR      37  22  55 SW9       30.18S

$$
OHZ001>008-015>018-024>025-062200-
NORTHWEST OHIO

CITY           SKY/WX    TMP DP  RH WIND       PRES   REMARKS
DEFIANCE       SUNNY     39  23  52 SW9       30.21S
FINDLAY        SUNNY     39  21  48 SW12      30.21S
TOLEDO EXPRESS SUNNY     37  22  54 SW10      30.20S
TOLEDO METCALF SUNNY     37  24  59 SW14      30.21F
LIMA           SUNNY     38  19  46 SW13      30.21F

$$
AND FOR LAKE MICHIGAN COASTAL AND OPEN LAKE BUOY OBSERVATIONS

STATION/POSITION TEMP    WIND        PRES    VSBY  WAVE
                 AIR SEA DIR/SP/G                  HT/PER
                 (F)     (DEG/KT/KT) (MB)    (MI)  (FT/S)
CALUMET HARBOR    40     220/  9/ 15 1021.2F
MICHIGAN CITY     36     230/ 11/ 13   N/A
BURNS HARBOR      38     230/ 12/ 20 1022.7F
SAINT JOSEPH      35     190/  9/ 11 1022.0S

$$
&&




USA.gov is the U.S. government's official web portal to all federal, state and local government web resources and services.